Regional Weather Roundup
Issued by NWS

Home | Current Version | Previous Version | Graphics & Text | Print | Product List | Glossary On
Versions: 1 2 3 4 5 6 7 8 9 10 11 12 13 14 15 16 17 18 19 20 21 22 23 24 25 26 27 28 29 30 31 32 33 34 35 36 37 38 39 40 41 42 43 44 45 46 47 48 49 50
000
ASUS43 KOAX 211410
RWRNE

WEATHER ROUNDUP FOR NEBRASKA
NATIONAL WEATHER SERVICE OMAHA NE
900 AM CDT WED JUN 21 2017

NOTES: SATELLITE DATA IS BEING USED TO AUGMENT CLOUD COVER ABOVE
       12000 FEET.
       "FAIR" INDICATES FEW OR NO CLOUDS BELOW 12,000 FEET WITH NO
       SIGNIFICANT WEATHER AND/OR OBSTRUCTIONS TO VISIBILITY.

  * THESE STATIONS DO NOT REPORT WEATHER SUCH AS RAIN...SNOW OR FOG.

NEZ001>004-019>022-054>056-211500-
NEBRASKA PANHANDLE

CITY           SKY/WX    TMP DP  RH WIND       PRES   REMARKS
SCOTTSBLUFF    SUNNY     74  52  46 VRB5      29.91R
ALLIANCE       SUNNY     77  54  44 W9        29.87R
CHADRON        SUNNY     73  54  51 VRB3      29.84R
GORDON         FAIR      71  55  56 CALM      29.83R
KIMBALL        SUNNY     76  48  38 W14       29.99S
SIDNEY         SUNNY     78  50  37 W15       29.93S
$$

NEZ057>060-069>072-079>082-211500-
SOUTHWEST NEBRASKA

CITY           SKY/WX    TMP DP  RH WIND       PRES   REMARKS
NORTH PLATTE   SUNNY     79  62  56 W7        29.81S
IMPERIAL       SUNNY     82  53  36 W12       29.85F
LEXINGTON      CLOUDY    77  65  65 S9        29.82R
MCCOOK         SUNNY     78  61  55 SE3       29.83R
OGALLALA       SUNNY     77  56  48 W6        29.84F
$$

NEZ005>010-023>029-035>040-094-211500-
NORTH CENTRAL NEBRASKA

CITY           SKY/WX    TMP DP  RH WIND       PRES   REMARKS
VALENTINE      MOSUNNY   72  54  53 E9        29.80R
AINSWORTH      CLOUDY    70  58  66 SE13      29.78F
BROKEN BOW     MOSUNNY   74  65  73 S10       29.81R
O`NEILL        CLOUDY    66  54  64 SE17G24   29.79F
ORD            CLOUDY    76  62  62 E5        29.80R
THEDFORD       SUNNY     78  62  58 W6        29.80S
$$

NEZ041-046>049-061>064-073>077-083>087-211500-
SOUTH CENTRAL NEBRASKA

CITY           SKY/WX    TMP DP  RH WIND       PRES   REMARKS
GRAND ISLAND   PTSUNNY   77  64  64 SW14      29.80R
AURORA         MOSUNNY   78  64  60 SW14G22   29.79S
HASTINGS       SUNNY     78  63  59 S14G21    29.81F
HEBRON         MOSUNNY   82  61  50 SW18G25   29.82R
HOLDREGE       MOSUNNY   74  62  64 S14G20    29.83R
KEARNEY *      PTSUNNY   77  63  61 S14       29.81S
YORK           SUNNY     79  64  61 S13       29.80S
$$

NEZ011>018-030>034-042>045-211500-
NORTHEAST NEBRASKA

CITY           SKY/WX    TMP DP  RH WIND       PRES   REMARKS
NORFOLK        CLOUDY    67  51  56 E15G22    29.82F
ALBION         CLOUDY    71  58  64 E14G20    29.83R
BLAIR          SUNNY     80  65  60 N17G25    29.85R
FREMONT        SUNNY     76  62  62 N8G17     29.84R
TEKAMAH        SUNNY     74  57  55 N21G28    29.85R
WAYNE          CLOUDY    67  53  59 E17G31    29.81F
$$

NEZ050>053-065>068-078-088>093-211500-
SOUTHEAST NEBRASKA

CITY           SKY/WX    TMP DP  RH WIND       PRES   REMARKS
LINCOLN        SUNNY     82  64  54 SW13      29.79S
OMAHA EPPLEY   MOSUNNY   80  65  59 S9        29.78F
BEATRICE       MOSUNNY   81  64  56 S10       29.83S
FALLS CITY     MOSUNNY   82  64  54 SW10      29.85S
NEBRASKA CITY  CLOUDY    82  64  55 SW14      29.82S
PLATTSMOUTH    SUNNY     81  63  54 S14       29.80F
$$

NEZ044-045-051>053-067-211500-
OMAHA AREA

CITY           SKY/WX    TMP DP  RH WIND       PRES   REMARKS
OMAHA EPPLEY   MOSUNNY   80  65  59 S9        29.78F
BLAIR          SUNNY     80  65  60 N17G25    29.85R
FREMONT        SUNNY     76  62  62 N8G17     29.84R
MILLARD        SUNNY     83  67  58 S7        29.78F
OFFUTT AFB     SUNNY     80  66  61 S9        29.78F
PLATTSMOUTH    SUNNY     81  63  54 S14       29.80F
WAHOO          FAIR      81  62  52 NW14      29.82R
$$




USA.gov is the U.S. government's official web portal to all federal, state and local government web resources and services.